QPF
0.01 0.01 0.01 0.01 0.01 0.01 0.01 0.01 0.00 0.00 0.00 0.00 0.00 0.00 0.00 0.00 0.00 0.02 0.02 0.02 0.03 0.03 0.02 0.01 0.02 0.02 0.02 0.02 0.02 0.03 0.04 0.04 0.04 0.03 0.02 0.01 0.01 0.01 0.01 0.01 0.01 0.00 0.00
0.01 0.01 0.01 0.02 0.02 0.01 0.01 0.00 0.00 0.00 0.00 0.00 0.00 0.00 0.00 0.00 0.01 0.01 0.01 0.02 0.03 0.02 0.01 0.01 0.01 0.01 0.01 0.02 0.02 0.03 0.03 0.03 0.03 0.02 0.03 0.03 0.02 0.02 0.01 0.01 0.00 0.00 0.00
0.01 0.01 0.01 0.01 0.01 0.01 0.01 0.01 0.00 0.00 0.00 0.00 0.00 0.01 0.01 0.00 0.01 0.01 0.01 0.02 0.02 0.02 0.02 0.01 0.01 0.01 0.01 0.01 0.02 0.02 0.02 0.02 0.03 0.02 0.02 0.03 0.03 0.03 0.02 0.01 0.01 0.01 0.01
0.01 0.01 0.01 0.01 0.01 0.01 0.01 0.01 0.01 0.01 0.00 0.00 0.00 0.01 0.01 0.01 0.01 0.01 0.01 0.02 0.02 0.03 0.02 0.02 0.01 0.01 0.01 0.02 0.03 0.03 0.03 0.03 0.03 0.02 0.02 0.02 0.02 0.03 0.02 0.01 0.01 0.01 0.01
0.01 0.01 0.01 0.02 0.01 0.01 0.01 0.01 0.01 0.01 0.01 0.00 0.01 0.01 0.01 0.01 0.01 0.01 0.01 0.02 0.02 0.02 0.02 0.02 0.01 0.01 0.01 0.03 0.03 0.02 0.02 0.03 0.03 0.03 0.02 0.02 0.02 0.02 0.02 0.01 0.01 0.01 0.01
0.01 0.01 0.01 0.01 0.02 0.02 0.02 0.01 0.01 0.01 0.01 0.01 0.00 0.01 0.01 0.01 0.02 0.02 0.02 0.02 0.02 0.02 0.01 0.01 0.00 0.00 0.01 0.03 0.03 0.03 0.03 0.02 0.02 0.02 0.02 0.02 0.02 0.02 0.02 0.02 0.01 0.01 0.01
0.01 0.01 0.01 0.01 0.02 0.03 0.02 0.02 0.02 0.02 0.01 0.01 0.00 0.01 0.02 0.02 0.02 0.03 0.03 0.01 0.02 0.02 0.02 0.01 0.00 0.00 0.01 0.01 0.03 0.04 0.04 0.03 0.03 0.03 0.03 0.03 0.03 0.02 0.02 0.02 0.01 0.01 0.01
0.01 0.01 0.01 0.01 0.01 0.01 0.02 0.02 0.03 0.02 0.02 0.01 0.01 0.01 0.02 0.02 0.03 0.03 0.03 0.03 0.02 0.03 0.03 0.02 0.00 0.00 0.01 0.01 0.02 0.03 0.04 0.04 0.04 0.04 0.04 0.04 0.03 0.02 0.02 0.01 0.01 0.01 0.01
0.01 0.01 0.01 0.01 0.01 0.01 0.01 0.02 0.03 0.03 0.03 0.02 0.02 0.02 0.02 0.02 0.02 0.03 0.03 0.02 0.03 0.03 0.03 0.02 0.01 0.01 0.01 0.02 0.02 0.02 0.03 0.04 0.03 0.04 0.05 0.04 0.03 0.03 0.02 0.02 0.02 0.03 0.02
0.01 0.01 0.00 0.00 0.01 0.01 0.01 0.02 0.02 0.03 0.02 0.02 0.03 0.02 0.02 0.03 0.03 0.03 0.02 0.02 0.03 0.04 0.03 0.02 0.01 0.01 0.01 0.01 0.01 0.02 0.02 0.02 0.02 0.02 0.03 0.03 0.03 0.02 0.02 0.03 0.03 0.03 0.03
0.00 0.01 0.00 0.00 0.00 0.01 0.01 0.02 0.01 0.02 0.02 0.02 0.01 0.02 0.03 0.03 0.02 0.02 0.02 0.02 0.03 0.05 0.03 0.02 0.01 0.01 0.01 0.01 0.01 0.02 0.02 0.01 0.01 0.01 0.01 0.01 0.02 0.01 0.01 0.02 0.03 0.03 0.04
0.00 0.00 0.00 0.00 0.00 0.01 0.01 0.02 0.01 0.01 0.01 0.01 0.01 0.01 0.03 0.02 0.02 0.02 0.02 0.03 0.04 0.04 0.02 0.01 0.01 0.01 0.01 0.01 0.01 0.02 0.01 0.01 0.01 0.01 0.01 0.01 0.01 0.02 0.02 0.02 0.03 0.04 0.04
0.00 0.00 0.00 0.00 0.00 0.01 0.01 0.01 0.01 0.00 0.00 0.00 0.00 0.01 0.02 0.01 0.01 0.02 0.03 0.03 0.03 0.02 0.01 0.01 0.01 0.01 0.01 0.02 0.02 0.02 0.01 0.01 0.01 0.01 0.01 0.01 0.01 0.01 0.02 0.02 0.03 0.03 0.04
0.00 0.00 0.00 0.00 0.00 0.01 0.01 0.01 0.01 0.01 0.00 0.00 0.00 0.01 0.02 0.02 0.02 0.01 0.01 0.01 0.01 0.02 0.02 0.02 0.02 0.01 0.02 0.02 0.02 0.02 0.01 0.01 0.01 0.01 0.01 0.01 0.01 0.01 0.01 0.02 0.03 0.04 0.04
0.00 0.00 0.00 0.00 0.00 0.01 0.01 0.01 0.01 0.01 0.00 0.00 0.01 0.01 0.02 0.02 0.02 0.01 0.01 0.01 0.01 0.01 0.02 0.03 0.02 0.02 0.02 0.03 0.03 0.03 0.02 0.01 0.01 0.01 0.01 0.01 0.01 0.01 0.01 0.02 0.03 0.04 0.04
0.00 0.00 0.00 0.00 0.00 0.00 0.01 0.01 0.01 0.01 0.01 0.00 0.01 0.01 0.01 0.01 0.02 0.02 0.01 0.01 0.01 0.02 0.02 0.02 0.02 0.01 0.01 0.03 0.04 0.03 0.02 0.01 0.01 0.01 0.01 0.01 0.01 0.01 0.01 0.02 0.02 0.03 0.03
0.00 0.00 0.00 0.00 0.00 0.00 0.01 0.01 0.01 0.01 0.01 0.00 0.00 0.01 0.01 0.01 0.02 0.02 0.02 0.02 0.02 0.02 0.02 0.02 0.02 0.02 0.02 0.03 0.04 0.04 0.02 0.01 0.01 0.01 0.01 0.01 0.01 0.01 0.02 0.02 0.02 0.02 0.03
0.00 0.00 0.00 0.00 0.00 0.00 0.00 0.01 0.01 0.01 0.01 0.01 0.01 0.01 0.01 0.01 0.01 0.02 0.02 0.03 0.03 0.03 0.03 0.03 0.03 0.03 0.03 0.03 0.04 0.04 0.02 0.01 0.01 0.01 0.01 0.01 0.01 0.02 0.02 0.02 0.02 0.02 0.03
0.00 0.00 0.00 0.00 0.00 0.00 0.00 0.01 0.01 0.01 0.01 0.00 0.00 0.01 0.01 0.01 0.01 0.02 0.02 0.03 0.03 0.03 0.03 0.04 0.04 0.04 0.03 0.02 0.02 0.03 0.02 0.01 0.01 0.01 0.01 0.01 0.01 0.01 0.01 0.02 0.02 0.02 0.03
0.00 0.00 0.00 0.00 0.00 0.00 0.00 0.00 0.01 0.01 0.00 0.00 0.00 0.01 0.01 0.01 0.01 0.01 0.01 0.02 0.02 0.03 0.02 0.03 0.03 0.03 0.03 0.02 0.02 0.02 0.02 0.02 0.01 0.01 0.01 0.01 0.01 0.01 0.01 0.02 0.02 0.02 0.02
0.00 0.00 0.00 0.00 0.00 0.00 0.00 0.00 0.01 0.01 0.00 0.01 0.01 0.01 0.01 0.01 0.01 0.01 0.01 0.01 0.02 0.02 0.02 0.03 0.03 0.03 0.03 0.02 0.02 0.02 0.02 0.02 0.02 0.01 0.01 0.01 0.01 0.01 0.01 0.01 0.01 0.02 0.02
0.00 0.00 0.00 0.00 0.00 0.00 0.00 0.00 0.01 0.01 0.01 0.01 0.00 0.01 0.01 0.01 0.01 0.02 0.02 0.02 0.02 0.02 0.02 0.02 0.02 0.03 0.02 0.02 0.02 0.02 0.02 0.02 0.02 0.01 0.01 0.01 0.01 0.01 0.01 0.01 0.01 0.01 0.02
0.00 0.00 0.00 0.00 0.00 0.00 0.00 0.00 0.01 0.01 0.00 0.01 0.01 0.01 0.01 0.01 0.01 0.01 0.01 0.01 0.02 0.02 0.02 0.02 0.02 0.02 0.02 0.02 0.02 0.02 0.02 0.02 0.02 0.01 0.01 0.01 0.01 0.01 0.01 0.01 0.01 0.01 0.01
0.00 0.01 0.01 0.01 0.01 0.01 0.01 0.01 0.01 0.01 0.01 0.01 0.01 0.01 0.01 0.01 0.01 0.01 0.01 0.01 0.01 0.02 0.02 0.03 0.03 0.03 0.03 0.03 0.03 0.02 0.03 0.03 0.03 0.02 0.02 0.02 0.01 0.01 0.01 0.00 0.01 0.01 0.01
0.01 0.01 0.01 0.01 0.01 0.01 0.01 0.01 0.01 0.01 0.01 0.01 0.02 0.02 0.01 0.01 0.01 0.01 0.01 0.01 0.01 0.01 0.01 0.02 0.03 0.03 0.03 0.03 0.04 0.04 0.05 0.05 0.04 0.03 0.02 0.02 0.01 0.01 0.01 0.01 0.01 0.01 0.01
0.01 0.01 0.01 0.01 0.01 0.01 0.02 0.02 0.02 0.01 0.01 0.01 0.02 0.02 0.02 0.03 0.03 0.03 0.02 0.02 0.02 0.02 0.02 0.02 0.03 0.03 0.03 0.03 0.03 0.03 0.04 0.03 0.03 0.03 0.02 0.02 0.01 0.01 0.01 0.01 0.01 0.01 0.01
MSLP
1018.44 1018.46 1018.51 1018.58 1018.66 1018.74 1018.80 1018.86 1018.90 1018.94 1018.97 1019.01 1019.05 1019.08 1019.13 1019.17 1019.21 1019.26 1019.32 1019.38 1019.46 1019.56 1019.67 1019.79 1019.94 1020.11 1020.33 1020.59 1020.92 1021.33 1021.82 1022.39 1023.02 1023.69 1024.37 1025.01 1025.60 1026.09 1026.49 1026.78 1026.98 1027.11 1027.19
1018.36 1018.38 1018.42 1018.47 1018.52 1018.56 1018.61 1018.65 1018.69 1018.73 1018.79 1018.84 1018.91 1018.97 1019.04 1019.11 1019.18 1019.25 1019.33 1019.41 1019.51 1019.62 1019.73 1019.86 1020.00 1020.16 1020.36 1020.60 1020.91 1021.30 1021.77 1022.32 1022.95 1023.63 1024.33 1025.00 1025.63 1026.18 1026.63 1026.99 1027.26 1027.46 1027.61
1018.29 1018.31 1018.34 1018.35 1018.36 1018.37 1018.37 1018.39 1018.41 1018.46 1018.52 1018.60 1018.70 1018.80 1018.91 1019.01 1019.12 1019.23 1019.34 1019.45 1019.58 1019.70 1019.84 1019.98 1020.13 1020.29 1020.48 1020.71 1021.00 1021.37 1021.82 1022.35 1022.95 1023.61 1024.29 1024.95 1025.58 1026.15 1026.63 1027.04 1027.36 1027.63 1027.85
1018.25 1018.28 1018.29 1018.27 1018.24 1018.20 1018.16 1018.13 1018.14 1018.17 1018.24 1018.34 1018.47 1018.61 1018.75 1018.90 1019.05 1019.19 1019.34 1019.49 1019.64 1019.80 1019.96 1020.12 1020.29 1020.47 1020.67 1020.90 1021.18 1021.53 1021.95 1022.44 1023.00 1023.61 1024.24 1024.86 1025.46 1026.01 1026.50 1026.92 1027.29 1027.61 1027.90
1018.29 1018.32 1018.31 1018.27 1018.19 1018.10 1018.02 1017.96 1017.93 1017.96 1018.03 1018.14 1018.28 1018.45 1018.62 1018.80 1018.98 1019.15 1019.33 1019.51 1019.69 1019.88 1020.07 1020.26 1020.46 1020.66 1020.88 1021.13 1021.41 1021.74 1022.13 1022.58 1023.08 1023.61 1024.17 1024.73 1025.28 1025.79 1026.25 1026.68 1027.08 1027.45 1027.80
1018.46 1018.48 1018.45 1018.37 1018.26 1018.13 1018.01 1017.91 1017.87 1017.88 1017.94 1018.04 1018.19 1018.36 1018.54 1018.73 1018.91 1019.09 1019.28 1019.47 1019.67 1019.89 1020.11 1020.34 1020.57 1020.82 1021.07 1021.34 1021.64 1021.96 1022.32 1022.72 1023.16 1023.62 1024.10 1024.59 1025.06 1025.52 1025.96 1026.39 1026.80 1027.21 1027.61
1018.78 1018.78 1018.72 1018.61 1018.47 1018.31 1018.16 1018.04 1017.97 1017.96 1018.01 1018.10 1018.23 1018.38 1018.53 1018.69 1018.86 1019.02 1019.19 1019.38 1019.58 1019.81 1020.06 1020.33 1020.61 1020.90 1021.20 1021.51 1021.82 1022.15 1022.50 1022.86 1023.24 1023.64 1024.04 1024.45 1024.86 1025.27 1025.68 1026.10 1026.52 1026.95 1027.41
1019.23 1019.21 1019.12 1018.99 1018.82 1018.64 1018.48 1018.34 1018.26 1018.23 1018.25 1018.31 1018.40 1018.50 1018.61 1018.72 1018.82 1018.94 1019.07 1019.23 1019.42 1019.65 1019.92 1020.22 1020.55 1020.89 1021.24 1021.59 1021.95 1022.29 1022.64 1022.98 1023.32 1023.66 1024.01 1024.36 1024.72 1025.08 1025.47 1025.87 1026.30 1026.76 1027.24
1019.78 1019.73 1019.62 1019.47 1019.28 1019.10 1018.92 1018.79 1018.69 1018.64 1018.63 1018.65 1018.69 1018.73 1018.76 1018.79 1018.83 1018.87 1018.94 1019.05 1019.21 1019.43 1019.71 1020.04 1020.41 1020.80 1021.21 1021.61 1022.00 1022.38 1022.74 1023.07 1023.40 1023.71 1024.02 1024.33 1024.65 1024.99 1025.35 1025.75 1026.18 1026.65 1027.14
1020.36 1020.28 1020.15 1019.99 1019.80 1019.61 1019.45 1019.31 1019.21 1019.15 1019.11 1019.09 1019.07 1019.03 1018.99 1018.93 1018.87 1018.84 1018.83 1018.89 1019.01 1019.21 1019.49 1019.84 1020.24 1020.68 1021.13 1021.58 1022.02 1022.43 1022.80 1023.15 1023.47 1023.77 1024.06 1024.36 1024.66 1024.99 1025.34 1025.73 1026.16 1026.62 1027.11
1020.91 1020.81 1020.67 1020.50 1020.32 1020.14 1019.99 1019.86 1019.76 1019.69 1019.62 1019.56 1019.48 1019.38 1019.26 1019.12 1018.98 1018.86 1018.79 1018.78 1018.87 1019.04 1019.31 1019.66 1020.09 1020.55 1021.04 1021.53 1022.00 1022.45 1022.85 1023.21 1023.54 1023.85 1024.14 1024.43 1024.74 1025.06 1025.41 1025.80 1026.21 1026.66 1027.13
1021.38 1021.28 1021.14 1020.97 1020.80 1020.63 1020.49 1020.37 1020.28 1020.20 1020.12 1020.02 1019.90 1019.74 1019.55 1019.35 1019.14 1018.95 1018.82 1018.76 1018.81 1018.95 1019.21 1019.55 1019.98 1020.46 1020.97 1021.48 1021.98 1022.45 1022.87 1023.26 1023.61 1023.93 1024.23 1024.53 1024.84 1025.16 1025.52 1025.89 1026.30 1026.73 1027.16
1021.76 1021.66 1021.52 1021.37 1021.21 1021.06 1020.93 1020.82 1020.73 1020.64 1020.55 1020.43 1020.27 1020.07 1019.84 1019.59 1019.33 1019.10 1018.92 1018.83 1018.84 1018.95 1019.18 1019.51 1019.93 1020.41 1020.92 1021.44 1021.94 1022.42 1022.86 1023.26 1023.63 1023.97 1024.29 1024.60 1024.92 1025.26 1025.61 1025.98 1026.37 1026.78 1027.19
1022.04 1021.95 1021.83 1021.69 1021.55 1021.41 1021.29 1021.19 1021.09 1020.99 1020.89 1020.75 1020.57 1020.35 1020.09 1019.81 1019.53 1019.27 1019.07 1018.94 1018.92 1019.01 1019.21 1019.51 1019.91 1020.36 1020.85 1021.36 1021.86 1022.34 1022.79 1023.20 1023.58 1023.94 1024.27 1024.60 1024.94 1025.28 1025.64 1026.01 1026.39 1026.78 1027.16
1022.24 1022.18 1022.08 1021.96 1021.83 1021.70 1021.58 1021.47 1021.36 1021.25 1021.13 1020.97 1020.78 1020.55 1020.28 1019.99 1019.70 1019.43 1019.21 1019.06 1019.02 1019.07 1019.24 1019.50 1019.86 1020.27 1020.73 1021.22 1021.70 1022.17 1022.61 1023.03 1023.42 1023.79 1024.14 1024.49 1024.84 1025.20 1025.56 1025.93 1026.31 1026.69 1027.07
1022.39 1022.36 1022.28 1022.18 1022.05 1021.92 1021.79 1021.67 1021.55 1021.42 1021.28 1021.11 1020.90 1020.66 1020.39 1020.10 1019.80 1019.53 1019.30 1019.14 1019.06 1019.09 1019.21 1019.43 1019.73 1020.09 1020.51 1020.96 1021.41 1021.86 1022.29 1022.71 1023.11 1023.49 1023.86 1024.22 1024.59 1024.96 1025.34 1025.72 1026.11 1026.50 1026.89
1022.50 1022.50 1022.44 1022.35 1022.23 1022.09 1021.95 1021.81 1021.67 1021.51 1021.35 1021.16 1020.95 1020.70 1020.43 1020.14 1019.84 1019.57 1019.33 1019.14 1019.04 1019.01 1019.08 1019.24 1019.48 1019.79 1020.16 1020.56 1020.97 1021.40 1021.82 1022.23 1022.63 1023.02 1023.41 1023.79 1024.17 1024.56 1024.96 1025.37 1025.78 1026.19 1026.60
1022.56 1022.58 1022.55 1022.47 1022.35 1022.21 1022.05 1021.89 1021.73 1021.55 1021.37 1021.17 1020.94 1020.69 1020.42 1020.13 1019.83 1019.55 1019.29 1019.08 1018.93 1018.86 1018.87 1018.96 1019.13 1019.37 1019.67 1020.02 1020.40 1020.79 1021.19 1021.60 1021.99 1022.39 1022.79 1023.18 1023.58 1023.99 1024.42 1024.85 1025.30 1025.75 1026.20
1022.55 1022.59 1022.58 1022.51 1022.40 1022.25 1022.09 1021.92 1021.74 1021.55 1021.35 1021.15 1020.92 1020.67 1020.40 1020.11 1019.81 1019.51 1019.23 1018.98 1018.78 1018.65 1018.59 1018.60 1018.70 1018.86 1019.10 1019.38 1019.71 1020.07 1020.45 1020.83 1021.23 1021.62 1022.02 1022.43 1022.84 1023.27 1023.72 1024.19 1024.67 1025.17 1025.68
1022.47 1022.52 1022.52 1022.46 1022.35 1022.22 1022.06 1021.89 1021.71 1021.52 1021.32 1021.12 1020.90 1020.66 1020.39 1020.11 1019.80 1019.49 1019.18 1018.89 1018.63 1018.43 1018.29 1018.23 1018.24 1018.32 1018.48 1018.70 1018.97 1019.29 1019.63 1019.99 1020.37 1020.75 1021.15 1021.56 1021.98 1022.43 1022.90 1023.39 1023.91 1024.46 1025.02
1022.29 1022.36 1022.36 1022.32 1022.23 1022.11 1021.96 1021.80 1021.64 1021.46 1021.29 1021.10 1020.90 1020.67 1020.43 1020.15 1019.84 1019.51 1019.18 1018.85 1018.53 1018.26 1018.04 1017.89 1017.81 1017.81 1017.88 1018.03 1018.24 1018.50 1018.79 1019.12 1019.47 1019.84 1020.22 1020.62 1021.05 1021.50 1021.98 1022.50 1023.05 1023.63 1024.24
1022.05 1022.12 1022.13 1022.10 1022.03 1021.92 1021.80 1021.66 1021.52 1021.38 1021.24 1021.08 1020.91 1020.72 1020.50 1020.23 1019.93 1019.60 1019.24 1018.87 1018.50 1018.16 1017.86 1017.62 1017.45 1017.36 1017.35 1017.42 1017.55 1017.75 1017.99 1018.28 1018.59 1018.93 1019.29 1019.67 1020.09 1020.53 1021.02 1021.55 1022.12 1022.73 1023.37
1021.77 1021.84 1021.86 1021.83 1021.77 1021.69 1021.59 1021.48 1021.38 1021.27 1021.16 1021.05 1020.92 1020.77 1020.57 1020.34 1020.05 1019.72 1019.34 1018.94 1018.53 1018.13 1017.76 1017.43 1017.18 1017.00 1016.90 1016.88 1016.94 1017.07 1017.25 1017.48 1017.75 1018.06 1018.39 1018.75 1019.15 1019.59 1020.07 1020.60 1021.17 1021.79 1022.45
1021.50 1021.55 1021.57 1021.55 1021.50 1021.43 1021.35 1021.26 1021.19 1021.11 1021.05 1020.98 1020.89 1020.77 1020.62 1020.41 1020.14 1019.82 1019.44 1019.01 1018.57 1018.12 1017.68 1017.29 1016.95 1016.69 1016.50 1016.41 1016.39 1016.45 1016.57 1016.75 1016.97 1017.24 1017.54 1017.88 1018.26 1018.69 1019.16 1019.68 1020.26 1020.88 1021.54
1021.25 1021.29 1021.30 1021.27 1021.22 1021.15 1021.08 1021.01 1020.95 1020.90 1020.86 1020.83 1020.77 1020.69 1020.57 1020.39 1020.15 1019.84 1019.46 1019.03 1018.56 1018.07 1017.59 1017.14 1016.73 1016.40 1016.13 1015.96 1015.87 1015.86 1015.93 1016.05 1016.24 1016.47 1016.75 1017.07 1017.44 1017.85 1018.32 1018.84 1019.40 1020.02 1020.67
1021.03 1021.06 1021.05 1021.01 1020.94 1020.86 1020.78 1020.71 1020.66 1020.62 1020.60 1020.58 1020.55 1020.50 1020.40 1020.25 1020.03 1019.74 1019.37 1018.94 1018.46 1017.95 1017.43 1016.93 1016.47 1016.08 1015.75 1015.51 1015.35 1015.28 1015.29 1015.38 1015.52 1015.73 1015.99 1016.30 1016.66 1017.08 1017.54 1018.06 1018.62 1019.22 1019.85
Thickness
5708 5707 5704 5702 5701 5700 5698 5696 5695 5693 5692 5690 5689 5687 5685 5684 5683 5682 5680 5680 5678 5677 5677 5676 5674 5674 5672 5672 5671 5669 5667 5665 5658 5656 5657 5657 5655 5654 5652 5650 5648 5646 5644
5707 5705 5703 5701 5699 5697 5695 5694 5693 5691 5690 5688 5686 5684 5683 5681 5680 5679 5677 5676 5675 5673 5673 5671 5670 5670 5668 5667 5666 5665 5663 5662 5657 5652 5651 5651 5650 5650 5648 5646 5645 5643 5641
5705 5703 5701 5698 5696 5693 5692 5692 5690 5688 5686 5685 5683 5681 5679 5678 5677 5676 5674 5673 5671 5670 5669 5668 5666 5665 5663 5662 5661 5660 5659 5659 5655 5650 5647 5646 5645 5645 5643 5642 5641 5639 5637
5702 5700 5697 5696 5693 5691 5690 5688 5686 5685 5683 5681 5680 5678 5676 5674 5673 5671 5670 5669 5667 5666 5665 5664 5663 5661 5659 5658 5657 5655 5654 5652 5649 5646 5643 5641 5640 5639 5637 5635 5633 5633 5632
5698 5695 5694 5693 5691 5689 5687 5685 5683 5681 5679 5677 5675 5673 5672 5669 5668 5666 5665 5664 5662 5661 5660 5659 5658 5657 5655 5654 5653 5650 5648 5645 5643 5640 5637 5635 5634 5632 5630 5630 5628 5627 5627
5694 5691 5690 5689 5687 5684 5682 5681 5679 5676 5674 5672 5670 5668 5666 5665 5663 5662 5659 5658 5657 5655 5654 5653 5652 5650 5649 5648 5647 5646 5644 5640 5637 5634 5632 5629 5628 5627 5626 5625 5622 5619 5617
5690 5688 5686 5684 5681 5680 5678 5675 5673 5671 5669 5667 5665 5663 5660 5659 5658 5656 5654 5652 5651 5650 5649 5647 5646 5644 5642 5640 5640 5639 5638 5636 5634 5631 5627 5626 5624 5623 5620 5618 5617 5614 5612
5685 5683 5681 5679 5676 5674 5672 5670 5668 5666 5664 5662 5660 5658 5656 5654 5653 5651 5649 5647 5646 5645 5644 5642 5640 5638 5636 5634 5633 5631 5630 5628 5628 5626 5623 5622 5620 5618 5616 5614 5612 5610 5609
5680 5679 5678 5675 5672 5669 5666 5664 5663 5661 5659 5657 5655 5653 5650 5648 5647 5646 5644 5641 5640 5639 5638 5637 5635 5632 5631 5629 5627 5624 5622 5621 5620 5619 5618 5616 5615 5613 5611 5607 5605 5601 5599
5676 5676 5675 5672 5668 5665 5662 5660 5658 5656 5654 5652 5650 5648 5646 5643 5642 5640 5638 5635 5633 5632 5631 5631 5629 5627 5625 5623 5620 5617 5614 5613 5613 5612 5610 5609 5607 5606 5604 5602 5599 5595 5593
5673 5672 5670 5668 5664 5661 5658 5656 5653 5651 5648 5646 5645 5643 5641 5639 5637 5634 5632 5629 5627 5625 5624 5623 5622 5621 5619 5617 5614 5611 5609 5608 5606 5604 5602 5601 5599 5598 5597 5596 5595 5592 5589
5669 5666 5664 5663 5660 5658 5653 5650 5649 5646 5642 5640 5638 5636 5635 5634 5631 5628 5626 5623 5622 5619 5618 5617 5616 5614 5612 5610 5607 5605 5603 5601 5598 5596 5594 5592 5591 5590 5590 5590 5589 5588 5586
5663 5661 5659 5657 5655 5652 5648 5645 5643 5640 5637 5634 5632 5630 5629 5628 5626 5623 5621 5618 5616 5613 5612 5611 5609 5607 5604 5602 5600 5598 5596 5592 5590 5587 5586 5585 5585 5584 5583 5583 5582 5581 5580
5656 5654 5653 5650 5647 5645 5643 5641 5637 5634 5632 5629 5627 5625 5623 5621 5619 5617 5614 5611 5609 5606 5605 5604 5602 5599 5597 5594 5592 5590 5588 5586 5584 5581 5580 5579 5579 5578 5576 5575 5573 5572 5570
5649 5647 5645 5643 5640 5638 5635 5633 5632 5630 5628 5625 5622 5620 5617 5614 5614 5612 5608 5605 5603 5600 5597 5595 5592 5590 5588 5586 5584 5583 5581 5579 5577 5576 5574 5572 5571 5570 5569 5568 5566 5564 5562
5642 5640 5638 5635 5633 5630 5627 5625 5624 5623 5622 5620 5618 5615 5613 5611 5609 5606 5603 5600 5597 5594 5590 5587 5586 5584 5583 5581 5579 5577 5575 5573 5572 5570 5568 5566 5564 5563 5562 5560 5559 5556 5555
5636 5634 5631 5629 5626 5624 5621 5618 5615 5614 5613 5612 5610 5608 5605 5603 5601 5599 5597 5594 5591 5587 5583 5582 5581 5580 5578 5576 5574 5571 5570 5568 5567 5565 5563 5561 5559 5557 5555 5553 5551 5549 5548
5630 5627 5625 5622 5619 5617 5615 5613 5610 5607 5604 5603 5601 5600 5597 5595 5593 5591 5588 5585 5581 5579 5578 5577 5576 5574 5572 5570 5568 5566 5565 5562 5560 5559 5557 5555 5553 5550 5548 5546 5544 5542 5540
5623 5620 5618 5615 5613 5611 5609 5606 5604 5601 5598 5595 5593 5591 5589 5586 5584 5582 5579 5577 5575 5574 5572 5571 5570 5568 5566 5564 5562 5560 5558 5556 5555 5553 5551 5549 5546 5543 5541 5539 5536 5534 5532
5615 5613 5611 5608 5605 5603 5601 5598 5595 5593 5590 5588 5585 5583 5580 5576 5574 5572 5570 5570 5568 5568 5566 5564 5563 5561 5559 5558 5555 5553 5551 5549 5548 5546 5544 5541 5539 5536 5534 5531 5529 5526 5524
5607 5605 5602 5599 5596 5595 5593 5590 5588 5585 5583 5580 5578 5576 5573 5570 5568 5566 5564 5563 5562 5561 5560 5558 5556 5554 5552 5550 5549 5547 5545 5543 5541 5539 5537 5534 5532 5529 5526 5523 5521 5518 5516
5599 5596 5593 5590 5588 5586 5583 5582 5579 5577 5575 5572 5569 5567 5565 5562 5560 5559 5557 5556 5554 5553 5552 5551 5549 5547 5545 5543 5541 5539 5537 5536 5534 5532 5529 5526 5524 5521 5519 5515 5512 5510 5507
5590 5587 5584 5582 5579 5577 5574 5572 5570 5568 5566 5563 5561 5558 5555 5554 5553 5551 5550 5549 5547 5546 5544 5543 5541 5540 5538 5536 5533 5531 5529 5527 5525 5523 5520 5517 5515 5512 5510 5507 5504 5501 5499
5581 5578 5575 5573 5570 5567 5565 5563 5560 5558 5556 5554 5551 5548 5546 5544 5543 5543 5542 5540 5538 5537 5535 5534 5532 5530 5528 5526 5524 5521 5519 5517 5515 5513 5510 5508 5505 5503 5500 5497 5495 5492 5490
5571 5569 5566 5564 5561 5558 5555 5553 5550 5548 5546 5543 5541 5538 5536 5534 5533 5532 5531 5530 5528 5527 5525 5523 5522 5520 5518 5516 5514 5512 5509 5507 5504 5502 5500 5497 5495 5493 5490 5488 5485 5483 5480
5561 5560 5557 5555 5552 5549 5546 5543 5540 5538 5535 5533 5530 5528 5525 5524 5522 5521 5519 5518 5516 5515 5514 5512 5510 5509 5508 5506 5503 5501 5499 5496 5494 5491 5489 5487 5485 5482 5479 5477 5475 5473 5471